[[{"header":{"parameterUnit":"m.s-1","parameterCategory":1,"la1":30.2991,"la2":30.254,"lo1":-89.0895,"lo2":-89.0444,"dy":0.0017,"dx":0.0017,"nx":28,"ny":28,"refTime":"2023-09-06T03:00:00:Z","depth":0,"parameterNumber":2,"parameterNumberName":"U-component_of_WINDS"},"data":[0,0,0,0,0,0,0,0,0,0,0,0,0,0,0,0,0,0,0,0,0,0,0,0,0,0,0,0,0,0,0,0,0,0,0,0,0,0,0,0,0,0,0,0,0,0,0,0,0,0,0,0,0,0,0,0,0,0,-5.0279,-5.0278,0,-5.0184,-5.0183,-5.0182,-5.0025,-5.0022,-5.0019,-5.0016,-4.9922,-4.9922,-4.9923,0,0,0,0,0,0,0,0,0,0,0,0,0,-5.0328,-5.0328,-5.0279,-5.0278,-5.0277,-5.0185,-5.0183,-5.0182,-5.0025,-5.0022,-5.0018,-5.0015,-4.9922,-4.9922,-4.9923,0,0,0,0,0,0,0,0,0,0,0,0,0,-5.0278,-5.0328,-5.028,-5.0188,-5.0179,-5.0185,-5.0183,-5.0182,-5.0026,-5.0022,-5.0017,-5.0013,-4.9922,-4.9922,-4.9923,-5.0012,0,0,-4.9924,-4.9924,0,0,0,0,0,0,0,0,-5.0281,-5.0276,-5.0202,-5.0194,-5.0184,-5.0112,-5.0166,-5.0125,-5.0027,-5.0084,-5.0016,-5.0011,-4.9989,-4.9984,-4.9975,-5.0008,-5.0003,-4.9924,-4.9924,-4.9924,-4.9924,0,0,0,0,0,0,0,-5.0285,-5.0279,-5.0242,-5.0202,-5.019,-5.0152,-5.014,-5.0157,-5.0062,-5.0079,-5.0067,-5.0058,-4.9983,-4.9976,-4.9972,-5.0002,-4.9924,-4.9924,-4.9924,-4.9924,-5.0101,-5.0105,0,0,0,0,0,0,-5.0301,-5.0283,-5.0245,-5.0239,-5.0222,-5.0155,-5.0141,-5.014,-5.0062,-5.0046,-5.0062,-5.0051,-4.9977,-4.9972,-4.9968,-5.0065,-4.9924,-4.9924,-4.9924,-5.0096,-5.0102,-5.0107,0,0,0,0,0,0,-5.0303,-5.0299,-5.0249,-5.0258,-5.0249,-5.0159,-5.0158,-5.014,-5.0132,-5.0049,-5.0031,-5.0071,-4.9974,-4.9968,-5.0002,-5.006,-4.9924,-4.9925,-5.0091,-5.0098,-5.0104,-5.0262,0,0,0,0,0,0,-5.0305,-5.0301,-5.0333,-5.026,-5.0249,-5.0283,-5.0161,-5.0141,-5.0132,-5.0117,-5.0053,-5.0038,-4.997,-5.0002,-5.0002,-5.0058,-4.9925,-5.0085,-5.0094,-5.0102,-5.0251,-5.0273,-5.0292,0,0,0,0,0,-5.0307,-5.0382,-5.0335,-5.0332,-5.0287,-5.0287,-5.028,-5.0199,-5.0138,-5.017,-5.0116,-5.004,-5.0055,-5.0007,-5.0005,-5.0062,-5.0081,-5.0092,-5.0101,-5.0242,-5.0269,-5.0292,0,0,0,0,0,0,-5.0466,-5.0371,-5.0318,-5.0371,-5.0338,-5.026,-5.0298,-5.0231,-5.0215,-5.0202,-5.0103,-5.009,-5.0136,-5.0103,-5.0052,-5.0144,-5.0056,-5.0066,-5.0163,-5.0188,-5.0208,-5.0214,-4.9925,0,0,0,0,0,-5.0507,-5.0514,-5.0431,-5.0486,-5.0472,-5.0389,-5.0386,-5.0326,-5.0288,-5.0273,-5.0222,-5.0189,-5.0186,-5.0186,-5.0178,-5.0247,-5.0229,-5.0285,-5.0306,-5.0323,-5.0332,-5.0364,-5.0387,-5.014,-5.014,-5.014,0,0,-5.0592,-5.0541,-5.0551,-5.0517,-5.0484,-5.0494,-5.0378,-5.0393,-5.0399,-5.0276,-5.0303,-5.0266,-5.0222,-5.0273,-5.0293,-5.0247,-5.0397,-5.0336,-5.0351,-5.035,-5.0377,-5.04,-5.0421,-5.0147,-5.0146,-5.0144,0,0,-5.075,-5.0714,-5.0754,-5.0724,-5.0675,-5.0619,-5.063,-5.0562,-5.0531,-5.0557,-5.0464,-5.0472,-5.0469,-5.044,-5.0426,-5.0576,-5.0504,-5.0577,-5.0683,-5.0715,-5.0735,-5.0751,-5.0802,-5.0822,-5.0587,-5.0587,-5.0587,0,-5.0862,-5.0872,-5.0784,-5.0805,-5.0792,-5.068,-5.0721,-5.0696,-5.0649,-5.0643,-5.0592,-5.0584,-5.0548,-5.0589,-5.0626,-5.0619,-5.0627,-5.0582,-5.0739,-5.0755,-5.0769,-5.0816,-5.0836,-5.0596,-5.0595,-5.0594,-5.0593,0,-5.1011,-5.1019,-5.1058,-5.1013,-5.1005,-5.1037,-5.0954,-5.0957,-5.0899,-5.0848,-5.0876,-5.0828,-5.0808,-5.0815,-5.0759,-5.0849,-5.0821,-5.0757,-5.0665,-5.0803,-5.0845,-5.0863,-5.0609,-5.0605,-5.0603,-5.0601,0,0,-5.1264,-5.1171,-5.1186,-5.1164,-5.1103,-5.1108,-5.1134,-5.1113,-5.1117,-5.1089,-5.1107,-5.1108,-5.1047,-5.1031,-5.0971,-5.1,-5.1119,-5.0931,-5.0928,-5.0965,-5.1212,-5.1259,-5.1282,-5.1072,-5.1076,-5.1078,-5.1215,0,-5.1408,-5.1445,-5.1368,-5.1424,-5.143,-5.1325,-5.1348,-5.1313,-5.1268,-5.1267,-5.1217,-5.1217,-5.1138,-5.1127,-5.1152,-5.1099,-5.1166,-5.1089,-5.1088,-5.1089,-5.1098,-5.1304,-5.1354,-5.1485,-5.1231,-5.1234,-5.1236,0,-5.158,-5.1559,-5.1616,-5.155,-5.155,-5.1572,-5.1546,-5.1547,-5.1506,-5.147,-5.1453,-5.1382,-5.1404,-5.1319,-5.1346,-5.1295,-5.1291,-5.1265,-5.1268,-5.1262,-5.1169,-5.1301,-5.1525,-5.1544,-5.1262,-5.126,-5.1258,0,-5.1756,-5.1743,-5.1774,-5.1759,-5.1684,-5.1701,-5.1671,-5.1625,-5.1618,-5.1596,-5.159,-5.1572,-5.1562,-5.155,-5.1477,-5.1422,-5.1513,-5.1422,-5.1483,-5.1485,-5.1504,-5.1503,-5.1728,-5.1507,-5.1507,-5.1507,-5.1506,0,-5.1923,-5.1962,-5.1851,-5.1871,-5.191,-5.1822,-5.1864,-5.1824,-5.1784,-5.1794,-5.1704,-5.1715,-5.1619,-5.162,-5.1563,-5.1593,-5.159,-5.1562,-5.1546,-5.1568,-5.1571,-5.1561,-5.1549,-5.1512,-5.1511,-5.151,-5.1509,0,-5.2125,-5.2053,-5.208,-5.2007,-5.199,-5.2022,-5.1959,-5.1974,-5.1923,-5.1937,-5.1935,-5.1855,-5.1851,-5.1778,-5.176,-5.1721,-5.1773,-5.1742,-5.1787,-5.1775,-5.1839,-5.1833,-5.2062,-5.2087,-5.1855,-5.1857,-5.1859,0,-5.2235,-5.2261,-5.2191,-5.219,-5.2164,-5.2165,-5.2156,-5.2071,-5.2066,-5.2021,-5.2041,-5.203,-5.2016,-5.2015,-5.1956,-5.1941,-5.1906,-5.1988,-5.1903,-5.1924,-5.1904,-5.1902,-5.1903,-5.2005,-5.2008,-5.201,-5.2012,0,-5.2437,-5.2399,-5.239,-5.2368,-5.236,-5.2339,-5.2312,-5.2317,-5.2223,-5.2222,-5.2217,-5.2206,-5.2186,-5.2176,-5.215,-5.2119,-5.205,-5.204,-5.2052,-5.2074,-5.2097,-5.2082,-5.1832,-5.2034,-5.2032,-5.203,-5.2029,-5.2028,-5.2593,-5.2611,-5.2564,-5.2556,-5.2527,-5.2504,-5.2514,-5.2464,-5.2457,-5.2433,-5.2384,-5.2386,-5.2344,-5.2302,-5.2278,-5.2278,-5.2236,-5.2256,-5.226,-5.2265,-5.2276,-5.21,-5.2273,-5.2273,-5.2272,-5.2271,-5.2271,0,-5.2788,-5.2752,-5.2746,-5.2711,-5.2705,-5.264,-5.2607,-5.2607,-5.2609,-5.2575,-5.2563,-5.2556,-5.2546,-5.2486,-5.2469,-5.2481,-5.2449,-5.2479,-5.2475,-5.2469,-5.2316,-5.2305,-5.2505,-5.2505,-5.2505,-5.2505,-5.2505,-5.2505,-5.2888,-5.2914,-5.2872,-5.2883,-5.2847,-5.2847,-5.2834,-5.2812,-5.2784,-5.2781,-5.2771,-5.2732,-5.2687,-5.2666,-5.2654,-5.2636,-5.2633,-5.2674,-5.2646,-5.2503,-5.248,-5.2459,-5.2448,-5.2674,-5.2675,-5.2798,-5.2799,-5.28]},{"header":{"parameterUnit":"m.s-1","parameterCategory":1,"la1":30.2991,"la2":30.254,"lo1":-89.0895,"lo2":-89.0444,"dy":0.0017,"dx":0.0017,"nx":28,"ny":28,"refTime":"2023-09-06T03:00:00:Z","depth":0,"parameterNumber":3,"parameterNumberName":"V-component_of_WINDS"},"data":[0,0,0,0,0,0,0,0,0,0,0,0,0,0,0,0,0,0,0,0,0,0,0,0,0,0,0,0,0,0,0,0,0,0,0,0,0,0,0,0,0,0,0,0,0,0,0,0,0,0,0,0,0,0,0,0,0,0,3.9155,3.9155,0,3.9193,3.9193,3.9194,3.9216,3.9216,3.9216,3.9216,3.925,3.9251,3.9252,0,0,0,0,0,0,0,0,0,0,0,0,0,3.9097,3.9098,3.9155,3.9155,3.9156,3.9193,3.9193,3.9194,3.9216,3.9216,3.9216,3.9216,3.925,3.9251,3.9252,0,0,0,0,0,0,0,0,0,0,0,0,0,3.9127,3.9098,3.9155,3.9171,3.9173,3.9193,3.9193,3.9194,3.9216,3.9216,3.9216,3.9216,3.925,3.9251,3.9252,3.9257,0,0,3.9256,3.9256,0,0,0,0,0,0,0,0,3.9126,3.9129,3.9168,3.917,3.9172,3.92,3.9186,3.9215,3.9216,3.9199,3.9216,3.9216,3.9233,3.9236,3.9242,3.9258,3.926,3.9256,3.9257,3.9257,3.9258,0,0,0,0,0,0,0,3.9123,3.9128,3.917,3.9169,3.9171,3.9176,3.918,3.9191,3.9215,3.9201,3.9203,3.9207,3.9234,3.9241,3.9243,3.926,3.9256,3.9257,3.9258,3.9258,3.9283,3.9283,0,0,0,0,0,0,3.9119,3.9126,3.9168,3.9171,3.9149,3.9176,3.9181,3.9191,3.9215,3.9219,3.9207,3.9208,3.9239,3.9242,3.9245,3.9253,3.9257,3.9258,3.9259,3.9283,3.9283,3.9283,0,0,0,0,0,0,3.9118,3.9123,3.9167,3.9149,3.9155,3.9177,3.9188,3.9191,3.9198,3.9219,3.9223,3.921,3.9239,3.9243,3.9254,3.9254,3.9259,3.926,3.9284,3.9283,3.9283,3.9268,0,0,0,0,0,0,3.9116,3.9122,3.9125,3.9149,3.9156,3.9177,3.9188,3.9192,3.9201,3.9203,3.9223,3.9227,3.924,3.9252,3.9255,3.9256,3.9261,3.9284,3.9283,3.9283,3.9268,3.9267,3.9266,0,0,0,0,0,3.9114,3.9118,3.9125,3.913,3.916,3.9177,3.9181,3.9197,3.9201,3.9204,3.9217,3.9226,3.9254,3.9253,3.9257,3.9258,3.9284,3.9283,3.9283,3.9269,3.9267,3.9266,0,0,0,0,0,0,3.9091,3.9121,3.9129,3.9141,3.9157,3.9181,3.9184,3.9194,3.9207,3.9208,3.9226,3.9231,3.924,3.925,3.9249,3.9264,3.927,3.927,3.9257,3.9256,3.9255,3.9252,3.9262,0,0,0,0,0,3.9088,3.91,3.9125,3.9133,3.9141,3.9161,3.9169,3.9181,3.9196,3.9202,3.9217,3.9231,3.9243,3.925,3.9262,3.927,3.9275,3.9272,3.9271,3.927,3.927,3.9276,3.9276,3.9283,3.9283,3.9283,0,0,3.908,3.9098,3.9104,3.9129,3.9142,3.9154,3.9166,3.9178,3.9187,3.9204,3.9216,3.9227,3.9244,3.9254,3.9259,3.9262,3.927,3.927,3.9269,3.927,3.9276,3.9275,3.9275,3.9283,3.9283,3.9283,0,0,3.9072,3.9087,3.9096,3.911,3.9131,3.9145,3.9147,3.917,3.9179,3.9192,3.9205,3.9215,3.9235,3.9247,3.9255,3.9254,3.9263,3.9257,3.9251,3.9257,3.9256,3.9256,3.9256,3.9256,3.9257,3.9257,3.9257,0,3.906,3.908,3.9099,3.9111,3.9121,3.914,3.9149,3.916,3.9183,3.9189,3.9193,3.922,3.9232,3.9246,3.9246,3.9252,3.9254,3.9255,3.9255,3.9255,3.9255,3.9255,3.9255,3.9257,3.9257,3.9257,3.9257,0,3.9063,3.9077,3.9081,3.9106,3.9117,3.9127,3.9147,3.9155,3.9166,3.9179,3.9193,3.9208,3.9225,3.9229,3.9238,3.9244,3.9245,3.9252,3.9258,3.9253,3.9253,3.9254,3.9256,3.9256,3.9256,3.9256,0,0,3.9041,3.9078,3.9079,3.9091,3.9116,3.9126,3.9137,3.9155,3.9162,3.9177,3.9187,3.9204,3.9211,3.9221,3.9232,3.9237,3.9236,3.9243,3.9243,3.9241,3.9243,3.9239,3.9238,3.9242,3.9242,3.9242,3.9242,0,3.9037,3.906,3.9079,3.9094,3.9107,3.9125,3.9135,3.915,3.9163,3.9175,3.9189,3.9201,3.9209,3.9215,3.9221,3.9234,3.9236,3.9235,3.925,3.925,3.9246,3.9239,3.9233,3.9233,3.9242,3.9242,3.9242,0,3.9036,3.9053,3.907,3.9096,3.9102,3.911,3.9129,3.914,3.9159,3.9168,3.918,3.9192,3.9204,3.9209,3.9225,3.9223,3.9231,3.9238,3.9239,3.9241,3.9246,3.9241,3.9233,3.9233,3.9243,3.9243,3.9243,0,3.9018,3.9046,3.906,3.907,3.9099,3.9105,3.9117,3.9136,3.9146,3.9162,3.9169,3.9185,3.9193,3.9205,3.9221,3.9223,3.9235,3.9241,3.9243,3.9242,3.9244,3.9244,3.9238,3.9248,3.9248,3.9248,3.9248,0,3.9012,3.9022,3.9053,3.9062,3.9074,3.9095,3.9105,3.9119,3.9136,3.9146,3.9162,3.9172,3.9193,3.9204,3.9217,3.9229,3.9232,3.9239,3.9242,3.9238,3.9237,3.9243,3.9243,3.9248,3.9248,3.9248,3.9248,0,3.8995,3.9016,3.9033,3.9061,3.9068,3.9076,3.9099,3.9107,3.9122,3.9136,3.914,3.9162,3.9177,3.9195,3.9214,3.9223,3.9233,3.9238,3.9228,3.923,3.923,3.923,3.9228,3.9229,3.9238,3.9238,3.9238,0,3.899,3.8998,3.9028,3.9038,3.9051,3.9065,3.9077,3.9098,3.9108,3.9131,3.9137,3.9153,3.9168,3.9191,3.9208,3.9223,3.9228,3.9226,3.923,3.9226,3.9229,3.9228,3.9229,3.9225,3.9225,3.9225,3.9225,0,3.8978,3.8989,3.9006,3.9027,3.904,3.9057,3.9074,3.908,3.9104,3.9115,3.9132,3.9144,3.9165,3.9182,3.92,3.9211,3.9221,3.9223,3.9225,3.922,3.9214,3.9218,3.9225,3.9223,3.9223,3.9223,3.9223,3.9224,3.8967,3.8976,3.9,3.9018,3.9034,3.905,3.906,3.9077,3.9092,3.9113,3.9124,3.914,3.9159,3.9185,3.9196,3.9208,3.9212,3.9213,3.9214,3.9214,3.9213,3.9212,3.9211,3.9211,3.9212,3.9212,3.9212,0,3.8957,3.8974,3.8991,3.9016,3.903,3.9041,3.9061,3.9072,3.9087,3.9105,3.912,3.9139,3.9155,3.9174,3.9192,3.9198,3.9203,3.9202,3.9201,3.9204,3.9208,3.9206,3.9197,3.9197,3.9197,3.9197,3.9197,3.9197,3.8954,3.8971,3.8984,3.9009,3.9024,3.9043,3.9053,3.9068,3.9083,3.9105,3.9119,3.9132,3.915,3.9169,3.9184,3.9189,3.9195,3.9192,3.9198,3.9202,3.9203,3.9205,3.9202,3.9193,3.9193,3.9193,3.9193,3.9193]}]]